11/07/2024 08:45:00,0.645
11/07/2024 09:00:00,0.64
11/07/2024 09:15:00,0.635
11/07/2024 09:30:00,0.63
11/07/2024 09:45:00,0.626
11/07/2024 10:00:00,0.621
11/07/2024 10:15:00,0.616
11/07/2024 10:30:00,0.612
11/07/2024 10:45:00,0.607
11/07/2024 11:00:00,0.603
11/07/2024 11:15:00,0.598
11/07/2024 11:30:00,0.594
11/07/2024 11:45:00,0.591
11/07/2024 12:00:00,0.587
11/07/2024 12:15:00,0.583
11/07/2024 12:30:00,0.58
11/07/2024 12:45:00,0.575
11/07/2024 13:00:00,0.572
11/07/2024 13:15:00,0.569
11/07/2024 13:30:00,0.566
11/07/2024 13:45:00,0.562
11/07/2024 14:00:00,0.559
11/07/2024 14:15:00,0.555
11/07/2024 14:30:00,0.553
11/07/2024 14:45:00,0.549
11/07/2024 15:00:00,0.546
11/07/2024 15:15:00,0.543
11/07/2024 15:30:00,0.541
11/07/2024 15:45:00,0.537
11/07/2024 16:00:00,0.534
11/07/2024 16:15:00,0.532
11/07/2024 16:30:00,0.529
11/07/2024 16:45:00,0.526
11/07/2024 17:00:00,0.524
11/07/2024 17:15:00,0.522
11/07/2024 17:30:00,0.522
11/07/2024 17:45:00,0.524
11/07/2024 18:00:00,0.525
11/07/2024 18:15:00,0.524
11/07/2024 18:30:00,0.522
11/07/2024 18:45:00,0.52
11/07/2024 19:00:00,0.517
11/07/2024 19:15:00,0.515
11/07/2024 19:30:00,0.513
11/07/2024 19:45:00,0.511
11/07/2024 20:00:00,0.508
11/07/2024 20:15:00,0.506
11/07/2024 20:30:00,0.504
11/07/2024 20:45:00,0.502
11/07/2024 21:00:00,0.499
11/07/2024 21:15:00,0.497
11/07/2024 21:30:00,0.495
11/07/2024 21:45:00,0.491
11/07/2024 22:00:00,0.485
11/07/2024 22:15:00,0.479
11/07/2024 22:30:00,0.473
11/07/2024 22:45:00,0.47
11/07/2024 23:00:00,0.466
11/07/2024 23:15:00,0.465
11/07/2024 23:30:00,0.463
11/07/2024 23:45:00,0.461
12/07/2024 00:00:00,0.459
12/07/2024 00:15:00,0.457
12/07/2024 00:30:00,0.455
12/07/2024 00:45:00,0.453
12/07/2024 01:00:00,0.451
12/07/2024 01:15:00,0.449
12/07/2024 01:30:00,0.447
12/07/2024 01:45:00,0.446
12/07/2024 02:00:00,0.444
12/07/2024 02:15:00,0.443
12/07/2024 02:30:00,0.44
12/07/2024 02:45:00,0.439
12/07/2024 03:00:00,0.437
12/07/2024 03:15:00,0.436
12/07/2024 03:30:00,0.434
12/07/2024 03:45:00,0.432
12/07/2024 04:00:00,0.431
12/07/2024 04:15:00,0.429
12/07/2024 04:30:00,0.427
12/07/2024 04:45:00,0.426
12/07/2024 05:00:00,0.425
12/07/2024 05:15:00,0.423
12/07/2024 05:30:00,0.422
12/07/2024 05:45:00,0.421
12/07/2024 06:00:00,0.419
12/07/2024 06:15:00,0.417
12/07/2024 06:30:00,0.416
12/07/2024 06:45:00,0.415
12/07/2024 07:00:00,0.414
12/07/2024 07:15:00,0.413
12/07/2024 07:30:00,0.411
12/07/2024 07:45:00,0.41
12/07/2024 08:00:00,0.409
12/07/2024 08:15:00,0.407
12/07/2024 08:30:00,0.407
12/07/2024 08:45:00,0.405
12/07/2024 09:00:00,0.404
12/07/2024 09:15:00,0.403
12/07/2024 09:30:00,0.402
12/07/2024 09:45:00,0.4
12/07/2024 10:00:00,0.399
12/07/2024 10:15:00,0.398
12/07/2024 10:30:00,0.398
12/07/2024 10:45:00,0.396
12/07/2024 11:00:00,0.396
12/07/2024 11:15:00,0.394
12/07/2024 11:30:00,0.393
12/07/2024 11:45:00,0.392
12/07/2024 12:00:00,0.391
12/07/2024 12:15:00,0.39
12/07/2024 12:30:00,0.389
12/07/2024 12:45:00,0.388
12/07/2024 13:00:00,0.387
12/07/2024 13:15:00,0.386
12/07/2024 13:30:00,0.385
12/07/2024 13:45:00,0.385
12/07/2024 14:00:00,0.383
12/07/2024 14:15:00,0.383
12/07/2024 14:30:00,0.382
12/07/2024 14:45:00,0.381
12/07/2024 15:00:00,0.38
12/07/2024 15:15:00,0.379
12/07/2024 15:30:00,0.378
12/07/2024 15:45:00,0.378
12/07/2024 16:00:00,0.377
12/07/2024 16:15:00,0.375
12/07/2024 16:30:00,0.375
12/07/2024 16:45:00,0.374
12/07/2024 17:00:00,0.373
12/07/2024 17:15:00,0.372
12/07/2024 17:30:00,0.371
12/07/2024 17:45:00,0.371
12/07/2024 18:00:00,0.372
12/07/2024 18:15:00,0.377
12/07/2024 18:30:00,0.381
12/07/2024 18:45:00,0.384
12/07/2024 19:00:00,0.385
12/07/2024 19:15:00,0.385
12/07/2024 19:30:00,0.384
12/07/2024 19:45:00,0.383
12/07/2024 20:00:00,0.382
12/07/2024 20:15:00,0.381
12/07/2024 20:30:00,0.38
12/07/2024 20:45:00,0.378
12/07/2024 21:00:00,0.373
12/07/2024 21:15:00,0.367
12/07/2024 21:30:00,0.362
12/07/2024 21:45:00,0.358
12/07/2024 22:00:00,0.355
12/07/2024 22:15:00,0.353
12/07/2024 22:30:00,0.352
12/07/2024 22:45:00,0.351
12/07/2024 23:00:00,0.35
12/07/2024 23:15:00,0.349
12/07/2024 23:30:00,0.348
12/07/2024 23:45:00,0.347
13/07/2024 00:00:00,0.346
13/07/2024 00:15:00,0.345
13/07/2024 00:30:00,0.344
13/07/2024 00:45:00,0.343
13/07/2024 01:00:00,0.342
13/07/2024 01:15:00,0.341
13/07/2024 01:30:00,0.34
13/07/2024 01:45:00,0.339
13/07/2024 02:00:00,0.339
13/07/2024 02:15:00,0.338
13/07/2024 02:30:00,0.337
13/07/2024 02:45:00,0.336
13/07/2024 03:00:00,0.335
13/07/2024 03:15:00,0.334
13/07/2024 03:30:00,0.333
13/07/2024 03:45:00,0.332
13/07/2024 04:00:00,0.331
13/07/2024 04:15:00,0.331
13/07/2024 04:30:00,0.33
13/07/2024 04:45:00,0.329
13/07/2024 05:00:00,0.328
13/07/2024 05:15:00,0.327
13/07/2024 05:30:00,0.326
13/07/2024 05:45:00,0.326
13/07/2024 06:00:00,0.325
13/07/2024 06:15:00,0.325
13/07/2024 06:30:00,0.324
13/07/2024 06:45:00,0.324
13/07/2024 07:00:00,0.323
13/07/2024 07:15:00,0.322
13/07/2024 07:30:00,0.322
13/07/2024 07:45:00,0.322
13/07/2024 08:00:00,0.321
13/07/2024 08:15:00,0.321
13/07/2024 08:30:00,0.32
13/07/2024 08:45:00,0.319
13/07/2024 09:00:00,0.319
13/07/2024 09:15:00,0.318
13/07/2024 09:30:00,0.317
13/07/2024 09:45:00,0.317
13/07/2024 10:00:00,0.316
13/07/2024 10:15:00,0.316
13/07/2024 10:30:00,0.316
13/07/2024 10:45:00,0.315
13/07/2024 11:00:00,0.315
13/07/2024 11:15:00,0.314
13/07/2024 11:30:00,0.314
13/07/2024 11:45:00,0.314
13/07/2024 12:00:00,0.315
13/07/2024 12:15:00,0.316
13/07/2024 12:30:00,0.315
13/07/2024 12:45:00,0.315
13/07/2024 13:00:00,0.314
13/07/2024 13:15:00,0.315
13/07/2024 13:30:00,0.314
13/07/2024 13:45:00,0.314
13/07/2024 14:00:00,0.313
13/07/2024 14:15:00,0.315
13/07/2024 14:30:00,0.312
13/07/2024 14:45:00,0.313
13/07/2024 15:00:00,0.312
13/07/2024 15:15:00,0.312
13/07/2024 15:30:00,0.31
13/07/2024 15:45:00,0.31
13/07/2024 16:00:00,0.31
13/07/2024 16:15:00,0.31
13/07/2024 16:30:00,0.31
13/07/2024 16:45:00,0.309
13/07/2024 17:00:00,0.308
13/07/2024 17:15:00,0.308
13/07/2024 17:30:00,0.308
13/07/2024 17:45:00,0.308
13/07/2024 18:00:00,0.309
13/07/2024 18:15:00,0.309
13/07/2024 18:30:00,0.307
13/07/2024 18:45:00,0.31
13/07/2024 19:00:00,0.309
13/07/2024 19:15:00,0.308
13/07/2024 19:30:00,0.307
13/07/2024 19:45:00,0.307
13/07/2024 20:00:00,0.307
13/07/2024 20:15:00,0.311
13/07/2024 20:30:00,0.308
13/07/2024 20:45:00,0.307
13/07/2024 21:00:00,0.307
13/07/2024 21:15:00,0.306
13/07/2024 21:30:00,0.306
13/07/2024 21:45:00,0.305
13/07/2024 22:00:00,0.304
13/07/2024 22:15:00,0.305
13/07/2024 22:30:00,0.304
13/07/2024 22:45:00,0.303
13/07/2024 23:00:00,0.303
13/07/2024 23:15:00,0.303
13/07/2024 23:30:00,0.303
13/07/2024 23:45:00,0.303
14/07/2024 00:00:00,0.302
14/07/2024 00:15:00,0.303
14/07/2024 00:30:00,0.303
14/07/2024 00:45:00,0.302
14/07/2024 01:00:00,0.302
14/07/2024 01:15:00,0.302
14/07/2024 01:30:00,0.303
14/07/2024 01:45:00,0.303
14/07/2024 02:00:00,0.305
14/07/2024 02:15:00,0.304
14/07/2024 02:30:00,0.304
14/07/2024 02:45:00,0.305
14/07/2024 03:00:00,0.304
14/07/2024 03:15:00,0.304
14/07/2024 03:30:00,0.303
14/07/2024 03:45:00,0.303
14/07/2024 04:00:00,0.303
14/07/2024 04:15:00,0.303
14/07/2024 04:30:00,0.303
14/07/2024 04:45:00,0.303
14/07/2024 05:00:00,0.304
14/07/2024 05:15:00,0.303
14/07/2024 05:30:00,0.303
14/07/2024 05:45:00,0.303
14/07/2024 06:00:00,0.304
14/07/2024 06:15:00,0.304
14/07/2024 06:30:00,0.307
14/07/2024 06:45:00,0.303
14/07/2024 07:00:00,0.302
14/07/2024 07:15:00,0.302
14/07/2024 07:30:00,0.302
14/07/2024 07:45:00,0.302
14/07/2024 08:00:00,0.302
14/07/2024 08:15:00,0.302
14/07/2024 08:30:00,0.302
14/07/2024 08:45:00,0.302
14/07/2024 09:00:00,0.302
14/07/2024 09:15:00,0.301
14/07/2024 09:30:00,0.302
14/07/2024 09:45:00,0.301
14/07/2024 10:00:00,0.301
14/07/2024 10:15:00,0.301
14/07/2024 10:30:00,0.302
14/07/2024 10:45:00,0.302
14/07/2024 11:00:00,0.302
14/07/2024 11:15:00,0.302
14/07/2024 11:30:00,0.302
14/07/2024 11:45:00,0.302
14/07/2024 12:00:00,0.302
14/07/2024 12:15:00,0.302
14/07/2024 12:30:00,0.302
14/07/2024 12:45:00,0.302
14/07/2024 13:00:00,0.303
14/07/2024 13:15:00,0.303
14/07/2024 13:30:00,0.303
14/07/2024 13:45:00,0.303
14/07/2024 14:00:00,0.304
14/07/2024 14:15:00,0.303
14/07/2024 14:30:00,0.304
14/07/2024 14:45:00,0.304
14/07/2024 15:00:00,0.303
14/07/2024 15:15:00,0.304
14/07/2024 15:30:00,0.303
14/07/2024 15:45:00,0.303
14/07/2024 16:00:00,0.303
14/07/2024 16:15:00,0.303
14/07/2024 16:30:00,0.303
14/07/2024 16:45:00,0.303
14/07/2024 17:00:00,0.302
14/07/2024 17:15:00,0.302
14/07/2024 17:30:00,0.302
14/07/2024 17:45:00,0.302
14/07/2024 18:00:00,0.301
14/07/2024 18:15:00,0.301
14/07/2024 18:30:00,0.301
14/07/2024 18:45:00,0.3
14/07/2024 19:00:00,0.3
14/07/2024 19:15:00,0.3
14/07/2024 19:30:00,0.3
14/07/2024 19:45:00,0.299
14/07/2024 20:00:00,0.299
14/07/2024 20:15:00,0.299
14/07/2024 20:30:00,0.299
14/07/2024 20:45:00,0.299
14/07/2024 21:00:00,0.299
14/07/2024 21:15:00,0.298
14/07/2024 21:30:00,0.298
14/07/2024 21:45:00,0.298
14/07/2024 22:00:00,0.298
14/07/2024 22:15:00,0.297
14/07/2024 22:30:00,0.297
14/07/2024 22:45:00,0.297
14/07/2024 23:00:00,0.297
14/07/2024 23:15:00,0.297
14/07/2024 23:30:00,0.296
14/07/2024 23:45:00,0.296
15/07/2024 00:00:00,0.296
15/07/2024 00:15:00,0.295
15/07/2024 00:30:00,0.295
15/07/2024 00:45:00,0.294
15/07/2024 01:00:00,0.294
15/07/2024 01:15:00,0.293
15/07/2024 01:30:00,0.293
15/07/2024 01:45:00,0.293
15/07/2024 02:00:00,0.292
15/07/2024 02:15:00,0.292
15/07/2024 02:30:00,0.292
15/07/2024 02:45:00,0.291
15/07/2024 03:00:00,0.291
15/07/2024 03:15:00,0.291
15/07/2024 03:30:00,0.29
15/07/2024 03:45:00,0.29
15/07/2024 04:00:00,0.29
15/07/2024 04:15:00,0.289
15/07/2024 04:30:00,0.289
15/07/2024 04:45:00,0.289
15/07/2024 05:00:00,0.289
15/07/2024 05:15:00,0.288
15/07/2024 05:30:00,0.288
15/07/2024 05:45:00,0.288
15/07/2024 06:00:00,0.288
15/07/2024 06:15:00,0.287
15/07/2024 06:30:00,0.287
15/07/2024 06:45:00,0.286
15/07/2024 07:00:00,0.286
15/07/2024 07:15:00,0.286
15/07/2024 07:30:00,0.286
15/07/2024 07:45:00,0.285
15/07/2024 08:00:00,0.285
15/07/2024 08:15:00,0.285
15/07/2024 08:30:00,0.284
15/07/2024 08:45:00,0.284
15/07/2024 09:00:00,0.283
15/07/2024 09:15:00,0.283
15/07/2024 09:30:00,0.283
15/07/2024 09:45:00,0.283
15/07/2024 10:00:00,0.283
15/07/2024 10:15:00,0.283
15/07/2024 10:30:00,0.282
15/07/2024 10:45:00,0.281
15/07/2024 11:00:00,0.281
15/07/2024 11:15:00,0.282
15/07/2024 11:30:00,0.282
15/07/2024 11:45:00,0.281
15/07/2024 12:00:00,0.281
15/07/2024 12:15:00,0.281
15/07/2024 12:30:00,0.28
15/07/2024 12:45:00,0.28
15/07/2024 13:00:00,0.28
15/07/2024 13:15:00,0.28
15/07/2024 13:30:00,0.28
15/07/2024 13:45:00,0.279
15/07/2024 14:00:00,0.279
15/07/2024 14:15:00,0.279
15/07/2024 14:30:00,0.279
15/07/2024 14:45:00,0.278
15/07/2024 15:00:00,0.278
15/07/2024 15:15:00,0.278
15/07/2024 15:30:00,0.278
15/07/2024 15:45:00,0.277
15/07/2024 16:00:00,0.277
15/07/2024 16:15:00,0.277
15/07/2024 16:30:00,0.277
15/07/2024 16:45:00,0.277
15/07/2024 17:00:00,0.276
15/07/2024 17:15:00,0.276
15/07/2024 17:30:00,0.276
15/07/2024 17:45:00,0.275
15/07/2024 18:00:00,0.275
15/07/2024 18:15:00,0.275
15/07/2024 18:30:00,0.275
15/07/2024 18:45:00,0.275
15/07/2024 19:00:00,0.274
15/07/2024 19:15:00,0.274
15/07/2024 19:30:00,0.274
15/07/2024 19:45:00,0.273
15/07/2024 20:00:00,0.273
15/07/2024 20:15:00,0.273
15/07/2024 20:30:00,0.272
15/07/2024 20:45:00,0.272
15/07/2024 21:00:00,0.272
15/07/2024 21:15:00,0.271
15/07/2024 21:30:00,0.271
15/07/2024 21:45:00,0.27
15/07/2024 22:00:00,0.27
15/07/2024 22:15:00,0.269
15/07/2024 22:30:00,0.269
15/07/2024 22:45:00,0.268
15/07/2024 23:00:00,0.268
15/07/2024 23:15:00,0.268
15/07/2024 23:30:00,0.267
15/07/2024 23:45:00,0.267
16/07/2024 00:00:00,0.267
16/07/2024 00:15:00,0.266
16/07/2024 00:30:00,0.266
16/07/2024 00:45:00,0.265
16/07/2024 01:00:00,0.265
16/07/2024 01:15:00,0.264
16/07/2024 01:30:00,0.263
16/07/2024 01:45:00,0.263
16/07/2024 02:00:00,0.263
16/07/2024 02:15:00,0.262
16/07/2024 02:30:00,0.262
16/07/2024 02:45:00,0.261
16/07/2024 03:00:00,0.261
16/07/2024 03:15:00,0.261
16/07/2024 03:30:00,0.26
16/07/2024 03:45:00,0.26
16/07/2024 04:00:00,0.26
16/07/2024 04:15:00,0.26
16/07/2024 04:30:00,0.259
16/07/2024 04:45:00,0.259
16/07/2024 05:00:00,0.259
16/07/2024 05:15:00,0.259
16/07/2024 05:30:00,0.259
16/07/2024 05:45:00,0.258
16/07/2024 06:00:00,0.258
16/07/2024 06:15:00,0.258
16/07/2024 06:30:00,0.258
16/07/2024 06:45:00,0.258
16/07/2024 07:00:00,0.258
16/07/2024 07:15:00,0.258
16/07/2024 07:30:00,0.258
16/07/2024 07:45:00,0.258
16/07/2024 08:00:00,0.258
